KE0LFX Weather Reports


time (UTC)temp
F
wind
direction
speed
knots
gust
knots
rain 1hr
in
rain 24hr
in
rain mn
in
humidity
%
barometer
mb
20260505101915 47 305 0.0 0.9 0.00 0.00 0.00 54 1012.4
20260505101414 47 46 1.7 1.7 0.00 0.00 0.00 54 1011.8
20260505100911 47 355 2.6 2.6 0.00 0.00 0.00 54 1011.4
20260505100408 47 354 1.7 1.7 0.00 0.00 0.00 54 1011.8
20260505095903 48 38 2.6 2.6 0.00 0.00 0.00 54 1011.9
20260505095400 48 310 0.0 0.0 0.00 0.00 0.00 54 1012.5
20260505094856 48 291 0.0 0.0 0.00 0.00 0.00 54 1013.0
20260505094354 48 267 0.0 0.0 0.00 0.00 0.00 54 1013.2
20260505093849 48 269 0.9 1.7 0.00 0.00 0.00 54 1013.5
20260505093347 48 280 0.9 0.9 0.00 0.00 0.00 52 1013.5
20260505092844 48 313 0.9 0.9 0.00 0.00 0.00 53 1013.0
20260505092342 48 338 0.9 0.9 0.00 0.00 0.00 54 1012.4
20260505091839 49 48 0.0 0.9 0.00 0.00 0.00 52 1013.0
20260505091337 48 342 2.6 2.6 0.00 0.00 0.00 51 1013.0
20260505090835 48 354 0.0 0.9 0.00 0.00 0.00 52 1012.5
20260505090333 49 319 0.0 0.9 0.00 0.00 0.00 52 1012.8
20260505085830 49 348 1.7 1.7 0.00 0.00 0.00 52 1012.8
20260505085327 49 2 0.9 1.7 0.00 0.00 0.00 51 1013.2
20260505084825 49 280 0.0 0.9 0.00 0.00 0.00 52 1013.5
20260505084323 49 275 0.9 0.9 0.00 0.00 0.00 52 1013.2
20260505083820 49 341 2.6 2.6 0.00 0.00 0.00 51 1013.2
20260505083318 49 291 0.9 0.9 0.00 0.00 0.00 51 1013.2
20260505082814 49 322 0.9 1.7 0.00 0.00 0.00 52 1012.4
20260505082311 49 27 2.6 4.3 0.00 0.00 0.00 50 1011.6
20260505081807 49 57 3.5 4.3 0.00 0.00 0.00 51 1011.5
20260505081304 49 305 2.6 4.3 0.00 0.00 0.00 51 1011.8
20260505080800 49 328 4.3 5.2 0.00 0.00 0.00 52 1012.0
20260505080256 49 10 4.3 6.1 0.00 0.00 0.00 52 1011.9
20260505075752 49 4 5.2 6.1 0.00 0.00 0.00 56 1011.6
20260505075249 49 18 2.6 4.3 0.00 0.00 0.00 56 1011.9
20260505074746 49 1 4.3 5.2 0.00 0.00 0.00 57 1012.3
20260505074244 48 347 2.6 2.6 0.00 0.00 0.00 57 1012.0
20260505073741 49 337 5.2 7.0 0.00 0.00 0.00 55 1011.4
20260505073239 49 348 3.5 5.2 0.00 0.00 0.00 55 1011.1
20260505072735 49 64 5.2 6.1 0.00 0.00 0.00 54 1011.5
20260505072231 49 339 4.3 5.2 0.00 0.00 0.00 54 1012.1
20260505071727 49 12 2.6 4.3 0.00 0.00 0.00 56 1011.6
20260505071224 50 354 2.6 2.6 0.00 0.00 0.00 55 1011.2
20260505070722 50 18 6.1 7.0 0.00 0.00 0.00 54 1011.1
20260505070218 50 4 4.3 6.1 0.00 0.00 0.00 53 1010.7
20260505065714 51 27 5.2 7.0 0.00 0.00 0.00 52 1011.1
20260505065211 51 333 2.6 4.3 0.00 0.00 0.00 51 1011.3
20260505064708 51 12 2.6 2.6 0.00 0.00 0.00 49 1011.2
20260505064206 51 345 7.0 7.8 0.00 0.00 0.00 49 1010.9
20260505063703 51 9 4.3 7.0 0.00 0.00 0.00 49 1010.9
20260505063159 51 330 3.5 4.3 0.00 0.00 0.00 49 1010.6
20260505062655 51 12 5.2 7.0 0.00 0.00 0.00 49 1010.1
20260505062153 51 343 2.6 4.3 0.00 0.00 0.00 49 1010.1
20260505061650 52 350 7.0 12.2 0.00 0.00 0.00 49 1009.7
20260505061148 52 348 4.3 5.2 0.00 0.00 0.00 49 1010.1
20260505060645 52 319 4.3 5.2 0.00 0.00 0.00 48 1009.8
20260505060142 52 342 7.8 12.2 0.00 0.00 0.00 47 1009.7
20260505055637 52 351 7.8 9.6 0.00 0.00 0.00 47 1009.6
20260505055134 52 28 6.1 7.0 0.00 0.00 0.00 47 1009.5
20260505054632 53 16 5.2 6.1 0.00 0.00 0.00 47 1010.0
20260505054129 53 271 7.8 12.2 0.00 0.00 0.00 47 1010.3
20260505053626 53 338 11.3 12.2 0.00 0.00 0.00 47 1010.6
20260505053123 53 343 6.1 7.8 0.00 0.00 0.00 48 1010.6
20260505052620 53 355 4.3 6.1 0.00 0.00 0.00 48 1010.5
20260505052117 53 294 6.1 7.0 0.00 0.00 0.00 47 1010.5
20260505051614 54 318 2.6 2.6 0.00 0.00 0.00 48 1010.7
20260505051112 54 330 6.1 7.8 0.00 0.00 0.00 48 1010.4
20260505050610 54 347 6.1 7.8 0.00 0.00 0.00 48 1009.9
20260505050108 54 61 6.1 7.8 0.00 0.00 0.00 49 1010.2
20260505041537 56 332 4.3 5.2 0.00 0.00 0.00 47 1009.9
20260505041035 57 339 13.9 19.1 0.00 0.00 0.00 46 1009.8
20260505040532 58 345 6.1 7.0 0.00 0.00 0.00 46 1009.9
20260505040029 58 343 3.5 4.3 0.00 0.00 0.00 45 1009.6
20260505035525 58 354 2.6 4.3 0.00 0.00 0.00 45 1009.6
20260505035022 58 352 6.1 8.7 0.00 0.00 0.00 44 1009.4
20260505034518 58 303 5.2 6.1 0.00 0.00 0.00 43 1008.7
20260505034016 58 327 5.2 7.0 0.00 0.00 0.00 42 1008.8
20260505033513 58 12 7.0 11.3 0.00 0.00 0.00 42 1008.8
20260505033011 58 280 2.6 4.3 0.00 0.00 0.00 42 1008.9
20260505032508 58 350 3.5 4.3 0.00 0.00 0.00 42 1008.9
20260505032004 58 265 2.6 2.6 0.00 0.00 0.00 42 1009.2
20260505031501 59 325 2.6 4.3 0.00 0.00 0.00 42 1009.0
20260505030958 59 308 1.7 1.7 0.00 0.00 0.00 42 1009.2
20260505030454 59 344 8.7 11.3 0.00 0.00 0.00 41 1009.0
20260505025949 59 304 2.6 5.2 0.00 0.00 0.00 41 1008.7
20260505025447 59 295 3.5 6.1 0.00 0.00 0.00 41 1008.4
20260505024946 59 1 2.6 2.6 0.00 0.00 0.00 41 1008.2
20260505024443 60 349 4.3 7.0 0.00 0.00 0.00 41 1008.3
20260505023940 60 348 6.1 8.7 0.00 0.00 0.00 41 1008.3
20260505023437 60 334 3.5 5.2 0.00 0.00 0.00 41 1008.3
20260505022934 60 207 1.7 1.7 0.00 0.00 0.00 41 1008.3
20260505022432 60 332 3.5 4.3 0.00 0.00 0.00 41 1008.2
20260505021928 60 16 4.3 6.1 0.00 0.00 0.00 40 1008.1
20260505021425 61 345 1.7 1.7 0.00 0.00 0.00 40 1008.0
20260505020920 61 351 2.6 5.2 0.00 0.00 0.00 40 1007.9
20260505020416 61 327 7.8 11.3 0.00 0.00 0.00 39 1007.6
20260505015913 61 304 4.3 5.2 0.00 0.00 0.00 39 1007.4
20260505015411 62 10 5.2 6.1 0.00 0.00 0.00 39 1007.3
20260505014908 62 327 4.3 5.2 0.00 0.00 0.00 38 1007.2
20260505014404 62 336 2.6 4.3 0.00 0.00 0.00 38 1007.0
20260505013901 62 331 2.6 2.6 0.00 0.00 0.00 37 1007.0
20260505013358 63 346 1.7 1.7 0.00 0.00 0.00 37 1006.7
20260505012856 63 304 1.7 1.7 0.00 0.00 0.00 36 1006.5
20260505012354 63 205 2.6 4.3 0.00 0.00 0.00 36 1006.3
20260505011850 63 30 5.2 6.1 0.00 0.00 0.00 36 1006.2
20260505011347 64 47 4.3 5.2 0.00 0.00 0.00 35 1006.3
20260505010843 64 323 4.3 5.2 0.00 0.00 0.00 35 1006.0
20260505010339 64 359 6.1 7.8 0.00 0.00 0.00 35 1006.0
20260505005835 65 339 3.5 7.8 0.00 0.00 0.00 35 1005.7
20260505005332 65 343 5.2 8.7 0.00 0.00 0.00 35 1005.8
20260505004830 66 325 7.0 8.7 0.00 0.00 0.00 35 1005.9
20260505004326 66 54 7.8 7.8 0.00 0.00 0.00 36 1005.7
20260505003824 66 323 5.2 7.0 0.00 0.00 0.00 36 1005.3
20260505003321 67 315 7.0 8.7 0.00 0.00 0.00 36 1005.3
20260505002816 67 284 2.6 4.3 0.00 0.00 0.00 36 1005.2
20260505002314 68 3 5.2 7.0 0.00 0.00 0.00 36 1005.2
20260505001812 68 306 7.0 9.6 0.00 0.00 0.00 36 1005.3
20260505001309 68 328 9.6 14.8 0.00 0.00 0.00 35 1005.0
20260505000806 69 349 7.0 13.0 0.00 0.00 0.00 35 1005.0
20260505000304 69 358 10.4 18.2 0.00 0.00 0.00 35 1004.7
20260504235800 70 336 5.2 7.8 0.00 0.00 0.00 35 1004.7
20260504235256 71 5 10.4 12.2 0.00 0.00 0.00 35 1004.4
20260504234754 71 354 7.8 12.2 0.00 0.00 0.00 35 1004.3
20260504234251 72 18 9.6 13.0 0.00 0.00 0.00 34 1004.4
20260504233747 72 312 5.2 7.0 0.00 0.00 0.00 34 1004.2
20260504233243 72 325 9.6 12.2 0.00 0.00 0.00 34 1004.0
20260504232740 73 338 6.1 9.6 0.00 0.00 0.00 34 1004.1
20260504232237 73 346 7.0 9.6 0.00 0.00 0.00 34 1004.0
20260504231734 73 332 5.2 7.0 0.00 0.00 0.00 34 1004.2
20260504231230 74 306 11.3 13.9 0.00 0.00 0.00 34 1003.9
20260504230726 75 330 6.1 8.7 0.00 0.00 0.00 34 1003.9
20260504230225 75 353 5.2 7.0 0.00 0.00 0.00 34 1003.5
20260504225724 76 313 4.3 5.2 0.00 0.00 0.00 33 1003.7
20260504225219 76 329 2.6 2.6 0.00 0.00 0.00 34 1003.7
20260504224716 77 328 6.1 9.6 0.00 0.00 0.00 34 1003.6
20260504224214 77 350 4.3 6.1 0.00 0.00 0.00 34 1003.6
20260504223710 77 300 1.7 2.6 0.00 0.00 0.00 35 1003.3
20260504223206 77 333 2.6 4.3 0.00 0.00 0.00 35 1003.3
20260504222703 77 321 12.2 14.8 0.00 0.00 0.00 35 1003.2
20260504222200 78 340 3.5 5.2 0.00 0.00 0.00 36 1003.0
20260504221657 77 338 8.7 13.0 0.00 0.00 0.00 37 1002.9
20260504221154 78 22 10.4 13.0 0.00 0.00 0.00 36 1002.9
20260504220650 79 338 3.5 5.2 0.00 0.00 0.00 38 1002.8
20260504220148 80 324 4.3 5.2 0.00 0.00 0.00 37 1002.7
20260504215644 80 298 6.1 9.6 0.00 0.00 0.00 38 1002.4
20260504215142 80 269 2.6 4.3 0.00 0.00 0.00 36 1002.5
20260504214637 80 266 2.6 4.3 0.00 0.00 0.00 36 1002.5
20260504214134 80 319 3.5 4.3 0.00 0.00 0.00 36 1002.5
20260504213631 81 263 2.6 4.3 0.00 0.00 0.00 36 1002.4
20260504213127 81 324 8.7 12.2 0.00 0.00 0.00 32 1002.2
20260504212624 82 293 7.8 11.3 0.00 0.00 0.00 30 1002.3
20260504212121 82 284 7.0 8.7 0.00 0.00 0.00 30 1002.3
20260504211618 82 263 7.8 13.9 0.00 0.00 0.00 30 1002.4
20260504211114 81 331 7.0 11.3 0.00 0.00 0.00 31 1002.4
20260504210613 80 253 2.6 5.2 0.00 0.00 0.00 32 1002.3
20260504210108 80 280 4.3 9.6 0.00 0.00 0.00 33 1002.6
20260504205606 80 286 8.7 12.2 0.00 0.00 0.00 33 1002.4
20260504205104 80 310 3.5 5.2 0.00 0.00 0.00 34 1002.5
20260504204601 80 296 4.3 5.2 0.00 0.00 0.00 34 1002.6
20260504204101 79 285 4.3 6.1 0.00 0.00 0.00 35 1002.9
20260504203559 79 248 8.7 12.2 0.00 0.00 0.00 35 1002.7
20260504203055 80 269 7.8 8.7 0.00 0.00 0.00 35 1002.9
20260504202551 80 201 5.2 7.0 0.00 0.00 0.00 37 1002.9
20260504202048 81 277 6.1 7.8 0.00 0.00 0.00 35 1002.7
20260504201545 81 276 2.6 5.2 0.00 0.00 0.00 35 1002.9
20260504201038 82 284 9.6 12.2 0.00 0.00 0.00 34 1003.1
20260504200533 81 257 6.1 9.6 0.00 0.00 0.00 34 1003.0
20260504200031 80 229 1.7 2.6 0.00 0.00 0.00 35 1003.3
20260504195526 79 242 4.3 6.1 0.00 0.00 0.00 35 1003.1
20260504195023 80 250 6.1 7.0 0.00 0.00 0.00 34 1003.3
20260504194520 81 278 4.3 6.1 0.00 0.00 0.00 35 1003.3
20260504194015 81 262 5.2 7.0 0.00 0.00 0.00 34 1003.3
20260504193512 80 224 6.1 6.1 0.00 0.00 0.00 35 1003.2
20260504193011 81 258 1.7 2.6 0.00 0.00 0.00 35 1003.2
20260504192509 81 266 7.0 9.6 0.00 0.00 0.00 34 1003.5
20260504192007 81 299 6.1 8.7 0.00 0.00 0.00 34 1003.3
20260504191504 80 262 3.5 5.2 0.00 0.00 0.00 34 1003.5
20260504191000 80 240 7.0 7.8 0.00 0.00 0.00 35 1003.6
20260504190456 80 265 4.3 6.1 0.00 0.00 0.00 35 1003.3
20260504185952 80 258 3.5 5.2 0.00 0.00 0.00 35 1003.5
20260504185450 81 207 4.3 6.1 0.00 0.00 0.00 34 1003.7
20260504184946 81 276 2.6 4.3 0.00 0.00 0.00 35 1003.4
20260504184442 80 291 11.3 15.6 0.00 0.00 0.00 34 1003.6
20260504183937 80 253 5.2 6.1 0.00 0.00 0.00 35 1003.6
20260504183435 80 215 7.0 11.3 0.00 0.00 0.00 35 1003.7
20260504182933 80 292 8.7 11.3 0.00 0.00 0.00 34 1003.6
20260504182429 80 223 4.3 7.0 0.00 0.00 0.00 36 1003.6
20260504181927 80 220 2.6 4.3 0.00 0.00 0.00 36 1003.8
20260504181424 81 268 3.5 4.3 0.00 0.00 0.00 36 1003.6
20260504180922 79 327 2.6 5.2 0.00 0.00 0.00 37 1003.6
20260504180421 79 237 5.2 7.0 0.00 0.00 0.00 35 1003.6
20260504175919 79 251 3.5 4.3 0.00 0.00 0.00 37 1003.7
20260504175415 79 247 11.3 13.0 0.00 0.00 0.00 36 1003.9
20260504174913 79 249 7.8 8.7 0.00 0.00 0.00 38 1003.6
20260504174410 79 212 3.5 4.3 0.00 0.00 0.00 38 1003.6
20260504173908 78 214 4.3 6.1 0.00 0.00 0.00 37 1003.5
20260504173404 79 249 6.1 7.8 0.00 0.00 0.00 37 1003.9
20260504172901 78 270 7.8 9.6 0.00 0.00 0.00 37 1003.9
20260504172357 79 280 6.1 8.7 0.00 0.00 0.00 36 1003.9
20260504171853 78 258 5.2 8.7 0.00 0.00 0.00 37 1003.9
20260504171351 78 268 2.6 6.1 0.00 0.00 0.00 38 1003.8
20260504170848 77 272 4.3 7.8 0.00 0.00 0.00 39 1003.8
20260504170344 78 251 1.7 1.7 0.00 0.00 0.00 42 1004.0
20260504160303 73 248 5.2 7.0 0.00 0.00 0.00 48 1004.6
20260504150728 68 236 2.6 4.3 0.00 0.00 0.00 51 1005.5
20260504150225 68 230 4.3 7.0 0.00 0.00 0.00 51 1005.3
20260504141154 64 223 3.5 6.1 0.00 0.00 0.00 53 1006.1
20260504140651 64 211 1.7 1.7 0.00 0.00 0.00 54 1006.2
20260504140147 64 224 1.7 1.7 0.00 0.00 0.00 53 1006.0
20260504130615 59 234 0.9 0.9 0.00 0.00 0.00 58 1006.3
20260504130112 59 211 2.6 2.6 0.00 0.00 0.00 58 1006.6
20260504110502 52 229 0.0 0.0 0.00 0.00 0.00 63 1006.8